Weather Roundup
Issued by NWS

Home | Current Version | Previous Version | Graphics & Text | Print | Product List | Glossary Off
Versions: 1 2 3 4 5 6 7 8 9 10 11 12 13 14 15 16 17 18 19 20 21 22 23 24 25 26 27 28 29 30 31 32 33 34 35 36 37 38 39 40 41 42 43 44 45 46 47 48 49 50

000
NZUS93 KARX 270659
HRRWXR

CURRENT HOURLY OBSERVATIONS ACROSS
MUCH OF THE UPPER MISSISSIPPI VALLEY
NATIONAL WEATHER SERVICE LA CROSSE WI
200 AM CDT MON MAR 27 2017


...SOUTHEAST MINNESOTA...


CITY           SKY/WX    TMP DP  RH WIND       PRES   REMARKS
ROCHESTER      CLOUDY    38  38 100 NW3       29.91S FOG
ROCHESTER/MAYO CLOUDY    39  39 100 W5        29.91S
WINONA         CLOUDY    41  37  87 CALM      29.92S
AUSTIN         FOG       39  37  93 CALM      29.91F VSB 1/2
ALBERT LEA     CLOUDY    37  37 100 CALM      29.91F FOG
DODGE CENTER   CLOUDY    37  37 100 NW3       29.91S FOG
PRESTON        FOG       38  37  97 NW3       29.91F VSB 1/2
OWATONNA       FOG       39  37  93 CALM      29.92S VSB 3/4
FARIBAULT      CLOUDY    39  37  93 CALM      29.93S FOG
$$

...ELSEWHERE IN MINNESOTA...


CITY           SKY/WX    TMP DP  RH WIND       PRES   REMARKS
MINNEAPOLIS    CLOUDY    39  34  82 CALM      29.93S
INTNL FALLS    PTCLDY    28  25  88 CALM      29.93R
DULUTH         FOG       32  31  96 CALM      29.92S VSB 1/4
RED WING       DRIZZLE   39  37  93 NW3       29.92S
REDWOOD FALLS  CLOUDY    40  37  89 S3        29.94S
MANKATO        CLOUDY    38  37  97 NW5       29.94R WCI  34
WORTHINGTON    CLOUDY    37  36  96 W7        29.94R WCI  32
FAIRMONT       CLOUDY    39  37  92 NW3       29.93S
$$

...SOUTHWEST WISCONSIN...


CITY           SKY/WX    TMP DP  RH WIND       PRES   REMARKS
LA CROSSE      CLOUDY    42  40  92 CALM      29.91S
PRAIRIE DU CHI CLOUDY    41  40  93 CALM      29.91F
BOSCOBEL       CLOUDY    43  41  93 CALM      29.92R
LONE ROCK      NOT AVBL
PLATTEVILLE    CLOUDY    42  42 100 W5        29.90S VSB 1
FORT MC COY    CLOUDY    39  39 100 CALM      29.90F FOG
CAMP DOUGLAS   CLOUDY    39  39 100 W3        29.88F FOG
MAUSTON-NEW LI CLOUDY    40  39  98 CALM      29.88S FOG
VIROQUA        CLOUDY    39  39 100 NW3       29.89S VSB 1/2
WIS DELLS      CLOUDY    39  38  99 CALM      29.88S FOG
$$

...ELSEWHERE IN WISCONSIN...


CITY           SKY/WX    TMP DP  RH WIND       PRES   REMARKS
MILWAUKEE      CLOUDY    44  41  89 W5        29.86S
MADISON        CLOUDY    41  39  93 MISG      29.88S
GREEN BAY      CLOUDY    38  38 100 NW5       29.87F WCI  34
EAU CLAIRE     CLOUDY    39  37  93 N3        29.89F
BLACK RVR FLS  CLOUDY    40  40 100 CALM      29.90S FOG
MEDFORD        CLOUDY    36  35  97 N3        29.87F
WAUSAU         CLOUDY    38  37  97 NW3       29.86S
WIS RAPIDS     FOG       39  39 100 NW3       29.88F VSB 3/4
MARSHFIELD     CLOUDY    38  37  97 N6        29.86F WCI  33
RICE LAKE      CLOUDY    36  35  96 CALM      29.93S
$$

...NORTHEAST IOWA...


CITY           SKY/WX    TMP DP  RH WIND       PRES   REMARKS
WATERLOO       CLOUDY    42  40  92 NW5       29.91F
DUBUQUE        CLOUDY    43  43 100 NW3       29.90S FOG
DECORAH        CLOUDY    39  39 100 CALM      29.91R
MASON CITY     CLOUDY    40  38  93 N6        29.91F FOG
CHARLES CITY   CLOUDY    41  41 100 N6        29.92S FOG
OELWEIN        FOG       41  41 100 N8        29.90F VSB 1/2
$$

...ELSEWHERE IN IOWA...


CITY           SKY/WX    TMP DP  RH WIND       PRES   REMARKS
DES MOINES     CLOUDY    45  44  97 N3        29.93R FOG
IOWA CITY      CLOUDY    47  45  93 SW3       29.93F
FORT DODGE     CLOUDY    39  36  87 N3        29.92F
MARSHALLTOWN   CLOUDY    43  43 100 N3        29.90F FOG
CEDAR RAPIDS   CLOUDY    44  44 100 NW3       29.89F
$$

...NORTHERN ILLINOIS...


CITY           SKY/WX    TMP DP  RH WIND       PRES   REMARKS
CHICAGO-OHARE  CLOUDY    52  50  93 W8        29.87S FOG
CHICAGO-MIDWAY CLOUDY    51  50  96 SW12      29.88S FOG
MOLINE         CLOUDY    48  45  89 SW5       29.92F
ROCKFORD       DRIZZLE   47  45  93 NW6       29.92R FOG
PEORIA         CLOUDY    49  48  97 W6        29.94S
$$

NOTE: "FAIR" INDICATES FEW OR NO CLOUDS BELOW 12,000 FEET WITH NO
SIGNIFICANT WEATHER AND/OR OBSTRUCTIONS TO VISIBILITY. WIND
SPEEDS ARE IN MILES-PER-HOUR.




USA.gov is the U.S. government's official web portal to all federal, state and local government web resources and services.